Weather History for Monticello, IA

Change the Weather History Date:

Thursday, October 4, 2012

  Actual Average Record
Temperature  
Mean Temperature 52 °F -  
Max Temperature 60 °F 65 °F 86 °F (2005)
Min Temperature 44 °F 42 °F 32 °F (2010)
Degree Days  
Heating Degree Days 13    
Growing Degree Days 2 (Base 50)    
Moisture  
Dew Point 44 °F    
Average Humidity 71    
Maximum Humidity 88    
Minimum Humidity 44    
Precipitation  
Precipitation 0.00 in - - ()
Sea Level Pressure  
Sea Level Pressure 30.07 in    
Wind  
Wind Speed 9 mph (West)    
Max Wind Speed 21 mph    
Max Gust Speed 28 mph    
Visibility 10 miles    
Events Rain    
Averages and records for this station are not official NWS values.
T = Trace of Precipitation, MM = Missing Value Source: NWS Daily Summary

Daily Weather History Graph

Daily Weather History Graph

Search for Another Location

Airport:

Trip Planner

Search our weather history database for the weather conditions in past years. The results will help you decide how hot, cold, wet, or windy it might be!

Date:

Astronomy

Oct. 04, 2012 Rise Set
Actual Time 7:05 AM CDT 6:40 PM CDT
Civil Twilight 6:37 AM CDT 7:08 PM CDT
Nautical Twilight 6:05 AM CDT 7:40 PM CDT
Astronomical Twilight 5:32 AM CDT 8:13 PM CDT
Moon 9:11 PM CDT (10/4) 11:27 AM CDT (10/4)
Length of Visible Light 12h 30m
Length of Day
11h 34m
Waning Gibbous, 82% of the Moon is Illuminated
Oct 4
Waning Gibbous
Oct 8
Last Quarter
Oct 15
New
Oct 21
First Quarter
Oct 29
Full

Hourly Weather History & Observations

Time (CDT) Temp. Windchill Dew Point Humidity Pressure Visibility Wind Dir Wind Speed Gust Speed Precip Events Conditions
12:15 AM 57.2 °F - 51.8 °F 82% 29.99 in 10.0 mi ESE 4.6 mph - N/A   Clear
12:35 AM 57.2 °F - 51.8 °F 82% 29.99 in 10.0 mi ESE 4.6 mph - N/A   Clear
12:55 AM 55.4 °F - 51.8 °F 88% 29.99 in 10.0 mi SE 4.6 mph - N/A   Clear
1:15 AM 55.4 °F - 51.8 °F 88% 29.99 in 10.0 mi SE 4.6 mph - N/A   Clear
1:35 AM 55.4 °F - 51.8 °F 88% 29.99 in 10.0 mi SSE 4.6 mph - N/A   Clear
1:55 AM 55.4 °F - 50.0 °F 82% 29.99 in 10.0 mi SSE 5.8 mph - N/A   Clear
2:15 AM 55.4 °F - 51.8 °F 88% 30.00 in 10.0 mi SSE 4.6 mph - N/A   Clear
2:35 AM 55.4 °F - 50.0 °F 82% 29.99 in 10.0 mi SSE 4.6 mph - N/A   Clear
2:55 AM 53.6 °F - 50.0 °F 88% 29.99 in 10.0 mi SSE 4.6 mph - N/A   Clear
3:15 AM 53.6 °F - 50.0 °F 88% 29.98 in 10.0 mi SSE 4.6 mph - N/A   Clear
3:35 AM 53.6 °F - 50.0 °F 88% 29.98 in 10.0 mi SSE 4.6 mph - N/A   Clear
3:55 AM 53.6 °F - 50.0 °F 88% 29.98 in 10.0 mi SSE 5.8 mph - N/A   Clear
4:15 AM 51.8 °F - 48.2 °F 88% 29.98 in 10.0 mi SSE 5.8 mph - N/A   Clear
4:35 AM 53.6 °F - 50.0 °F 88% 29.98 in 10.0 mi SSE 4.6 mph - N/A   Clear
4:55 AM 53.6 °F - 50.0 °F 88% 29.98 in 10.0 mi SSE 5.8 mph - N/A   Mostly Cloudy
5:15 AM 55.4 °F - 51.8 °F 88% 29.97 in 10.0 mi South 4.6 mph - N/A   Overcast
5:35 AM 55.4 °F - 51.8 °F 88% 29.97 in 10.0 mi South 6.9 mph - N/A   Scattered Clouds
5:55 AM 55.4 °F - 51.8 °F 88% 29.97 in 10.0 mi South 4.6 mph - N/A   Scattered Clouds
6:15 AM 55.4 °F - 51.8 °F 88% 29.97 in 10.0 mi South 6.9 mph - N/A   Overcast
6:35 AM 55.4 °F - 51.8 °F 88% 29.98 in 10.0 mi SSW 6.9 mph - N/A   Scattered Clouds
6:55 AM 55.4 °F - 51.8 °F 88% 29.99 in 10.0 mi SSW 5.8 mph - N/A   Clear
7:15 AM 53.6 °F - 50.0 °F 88% 29.98 in 10.0 mi South 5.8 mph - N/A   Clear
7:35 AM 55.4 °F - 51.8 °F 88% 29.99 in 10.0 mi South 5.8 mph - N/A   Clear
7:55 AM 57.2 °F - 51.8 °F 82% 29.99 in 10.0 mi SSW 4.6 mph - N/A   Scattered Clouds
8:15 AM 57.2 °F - 53.6 °F 88% 30.00 in 10.0 mi WSW 6.9 mph - N/A   Scattered Clouds
8:35 AM 57.2 °F - 51.8 °F 82% 30.01 in 10.0 mi West 15.0 mph 20.7 mph N/A   Scattered Clouds
8:55 AM 55.4 °F - 46.4 °F 72% 30.04 in 7.0 mi WNW 17.3 mph 27.6 mph N/A   Mostly Cloudy
9:15 AM 55.4 °F - 44.6 °F 67% 30.04 in 10.0 mi West 13.8 mph 20.7 mph N/A   Mostly Cloudy
9:35 AM 53.6 °F - 44.6 °F 72% 30.03 in 10.0 mi WNW 20.7 mph 26.5 mph N/A   Mostly Cloudy
9:55 AM 51.8 °F - 44.6 °F 76% 30.00 in 7.0 mi NNW 10.4 mph - N/A Rain Light Rain
10:15 AM 51.8 °F - 46.4 °F 82% 30.03 in 10.0 mi West 16.1 mph - N/A   Scattered Clouds
10:35 AM 51.8 °F - 46.4 °F 82% 30.06 in 7.0 mi West 15.0 mph 20.7 mph N/A Rain Light Rain
10:55 AM 51.8 °F - 46.4 °F 82% 30.06 in 10.0 mi West 18.4 mph 23.0 mph N/A   Scattered Clouds
11:15 AM 51.8 °F - 46.4 °F 82% 30.08 in 10.0 mi West 18.4 mph 21.9 mph N/A   Mostly Cloudy
11:35 AM 51.8 °F - 46.4 °F 82% 30.08 in 10.0 mi West 16.1 mph 24.2 mph N/A   Scattered Clouds
11:55 AM 51.8 °F - 46.4 °F 82% 30.09 in 10.0 mi West 16.1 mph - N/A   Scattered Clouds
12:15 PM 53.6 °F - 44.6 °F 72% 30.09 in 10.0 mi West 13.8 mph 19.6 mph N/A   Scattered Clouds
12:35 PM 53.6 °F - 44.6 °F 72% 30.08 in 10.0 mi WNW 15.0 mph - N/A   Scattered Clouds
12:55 PM 55.4 °F - 44.6 °F 67% 30.09 in 10.0 mi West 18.4 mph - N/A   Scattered Clouds
1:35 PM 53.6 °F - 44.6 °F 72% 30.09 in 10.0 mi West 12.7 mph 20.7 mph N/A   Clear
1:55 PM 57.2 °F - 44.6 °F 63% 30.09 in 10.0 mi WNW 17.3 mph 20.7 mph N/A   Clear
2:15 PM 57.2 °F - 42.8 °F 59% 30.09 in 10.0 mi West 18.4 mph 24.2 mph N/A   Clear
2:35 PM 57.2 °F - 42.8 °F 59% 30.09 in 10.0 mi West 17.3 mph 24.2 mph N/A   Clear
2:55 PM 59.0 °F - 39.2 °F 48% 30.10 in 10.0 mi West 16.1 mph 21.9 mph N/A   Clear
3:15 PM 60.8 °F - 39.2 °F 45% 30.10 in 10.0 mi WNW 17.3 mph 25.3 mph N/A   Clear
3:35 PM 57.2 °F - 37.4 °F 48% 30.11 in 10.0 mi West 16.1 mph 20.7 mph N/A   Mostly Cloudy
3:55 PM 57.2 °F - 37.4 °F 48% 30.11 in 10.0 mi West 15.0 mph - N/A   Overcast
4:15 PM 57.2 °F - 37.4 °F 48% 30.10 in 10.0 mi WNW 17.3 mph 21.9 mph N/A   Overcast
4:35 PM 55.4 °F - 37.4 °F 51% 30.11 in 10.0 mi WNW 16.1 mph 19.6 mph N/A   Overcast
4:55 PM 55.4 °F - 37.4 °F 51% 30.11 in 10.0 mi WNW 9.2 mph - N/A   Overcast
5:15 PM 57.2 °F - 35.6 °F 44% 30.11 in 10.0 mi West 12.7 mph - N/A   Mostly Cloudy
5:35 PM 57.2 °F - 35.6 °F 44% 30.11 in 10.0 mi West 16.1 mph 23.0 mph N/A   Scattered Clouds
5:55 PM 57.2 °F - 35.6 °F 44% 30.12 in 10.0 mi WNW 15.0 mph 24.2 mph N/A   Clear
6:15 PM 55.4 °F - 35.6 °F 47% 30.12 in 10.0 mi WNW 15.0 mph - N/A   Clear
6:35 PM 53.6 °F - 35.6 °F 51% 30.13 in 10.0 mi WNW 12.7 mph 17.3 mph N/A   Clear
6:55 PM 53.6 °F - 35.6 °F 51% 30.14 in 10.0 mi WNW 12.7 mph - N/A   Clear
7:15 PM 51.8 °F - 35.6 °F 54% 30.15 in 10.0 mi WNW 11.5 mph 17.3 mph N/A   Clear
7:35 PM 51.8 °F - 35.6 °F 54% 30.15 in 10.0 mi WNW 12.7 mph - N/A   Clear
7:55 PM 50.0 °F - 35.6 °F 58% 30.16 in 10.0 mi NW 11.5 mph - N/A   Clear
8:15 PM 48.2 °F - 35.6 °F 62% 30.16 in 10.0 mi NW 8.1 mph - N/A   Clear
8:35 PM 48.2 °F - 35.6 °F 62% 30.16 in 10.0 mi WNW 11.5 mph 16.1 mph N/A   Clear
8:55 PM 48.2 °F - 35.6 °F 62% 30.17 in 10.0 mi WNW 9.2 mph - N/A   Clear
9:15 PM 48.2 °F - 35.6 °F 62% 30.18 in 10.0 mi WNW 9.2 mph - N/A   Clear
9:35 PM 48.2 °F - 35.6 °F 62% 30.18 in 10.0 mi WNW 9.2 mph - N/A   Clear
9:55 PM 48.2 °F - 35.6 °F 62% 30.20 in 10.0 mi WNW 9.2 mph - N/A   Clear
10:15 PM 46.4 °F 41.9 °F 35.6 °F 66% 30.20 in 10.0 mi WNW 9.2 mph - N/A   Clear
10:35 PM 46.4 °F 41.5 °F 33.8 °F 62% 30.20 in 10.0 mi NW 10.4 mph - N/A   Clear
10:55 PM 46.4 °F 40.4 °F 33.8 °F 62% 30.20 in 10.0 mi NW 13.8 mph 18.4 mph N/A   Clear
11:15 PM 44.6 °F 39.2 °F 33.8 °F 66% 30.19 in 10.0 mi NW 10.4 mph - N/A   Clear
11:35 PM 44.6 °F 39.2 °F 33.8 °F 66% 30.18 in 10.0 mi NW 10.4 mph - N/A   Clear
11:55 PM 44.6 °F 40.2 °F 33.8 °F 66% 30.17 in 10.0 mi NW 8.1 mph 16.1 mph N/A   Clear